Wind_Speed
32 31 31 30 29 29 28 26 26 27 25 23 21 20 19 18 18 18 17 16 14 13 13 12 12 11 11 11 11 13 14 15 17 18 19 20 21 22 24 24 24 25 25 25 25 25 25 25 25 25 25 25 25 25 25 25 24 24 24 25 25 25 26 26 26 27 27 27 27
32 31 31 31 30 29 27 26 26 25 24 23 21 20 19 17 17 16 16 15 14 14 13 12 11 11 12 13 14 15 16 17 18 18 19 21 22 23 24 24 24 24 25 25 25 26 26 26 26 26 26 25 25 25 25 25 24 24 24 25 25 25 25 26 26 26 26 26 26
31 31 32 32 31 29 28 27 26 25 23 22 21 20 19 18 17 17 16 16 15 14 13 12 12 12 13 14 15 15 16 17 18 19 20 22 23 23 23 24 24 24 25 26 26 27 27 27 27 27 27 26 26 26 25 25 25 25 25 26 26 26 26 26 26 26 26 26 26
31 32 32 32 31 29 27 27 26 25 23 22 22 21 21 20 19 18 17 15 14 13 13 13 13 13 13 13 14 15 16 18 19 20 20 21 22 23 23 24 25 25 26 27 27 28 28 28 28 28 28 27 27 27 27 26 26 26 26 26 26 26 26 26 26 26 26 26 26
31 32 32 32 31 29 27 26 25 24 23 22 21 21 20 20 19 18 16 15 14 14 14 14 13 12 12 13 14 16 17 18 19 19 20 21 22 23 24 25 25 26 27 27 28 28 29 29 29 28 28 28 28 27 27 27 26 26 26 27 27 26 26 26 26 26 26 26 26
31 31 31 31 30 28 26 25 24 24 22 20 20 20 19 18 16 15 14 14 13 13 13 12 12 13 14 15 16 17 18 18 18 19 20 22 23 24 25 25 26 27 27 28 28 28 28 28 28 28 27 27 27 27 26 26 26 26 26 26 26 26 26 26 26 26 26 26 26
29 30 30 28 27 26 25 24 22 21 21 21 20 19 18 17 14 12 11 12 11 11 11 11 13 14 15 16 17 17 18 18 18 19 21 22 24 25 25 26 26 27 27 27 28 28 27 27 27 27 27 26 26 26 25 25 25 25 26 26 26 26 26 26 26 26 26 26 27
27 28 27 25 24 24 23 22 21 20 21 21 20 19 18 16 14 12 10 10 11 11 12 13 14 15 16 17 17 17 18 18 19 20 22 23 24 25 26 26 26 27 27 27 27 27 27 26 26 26 26 26 25 25 25 25 25 25 26 26 26 26 26 26 26 26 27 27 27
25 25 24 23 23 22 22 21 21 21 21 20 20 19 18 17 15 13 12 12 13 14 14 15 16 17 17 17 17 18 18 19 20 21 22 23 24 24 25 25 25 26 26 26 25 25 25 25 25 25 25 25 25 25 25 25 25 26 26 27 27 27 27 27 28 28 28 28 28
23 22 22 21 21 21 21 21 21 21 21 20 19 19 18 17 16 15 15 15 16 17 17 17 17 17 17 17 17 18 18 19 20 21 22 22 22 23 23 23 24 24 24 24 24 25 25 25 25 25 26 26 26 26 26 27 27 28 28 29 29 29 29 29 29 29 29 29 30
21 20 20 19 19 19 20 21 20 20 19 20 19 18 17 16 15 15 15 16 16 16 17 17 16 15 15 16 17 17 18 19 20 20 21 21 21 21 22 22 23 24 24 24 25 25 26 26 26 27 27 27 27 28 28 28 29 29 30 30 30 31 31 31 30 30 30 30 30
19 18 18 18 18 19 19 20 19 18 17 18 17 15 14 14 14 14 14 14 14 15 15 15 14 14 15 16 17 18 18 19 20 21 21 22 22 22 23 23 24 25 25 26 26 26 27 27 27 28 28 29 29 29 29 30 30 30 31 31 31 31 31 32 31 31 31 31 31
16 16 17 17 18 18 18 18 17 15 14 13 12 12 13 12 13 13 13 13 13 13 13 13 13 14 15 16 17 18 19 20 21 21 22 22 23 23 24 24 25 25 26 26 27 27 27 28 28 29 29 30 30 30 30 30 30 31 31 31 31 31 32 32 32 31 31 31 31
15 15 16 16 16 16 15 14 13 11 10 9 9 10 11 12 12 13 13 12 12 12 12 13 14 15 16 17 18 19 20 20 21 22 22 23 23 24 25 25 25 26 26 27 27 27 27 28 28 29 29 30 30 30 30 30 30 31 31 32 32 32 32 32 32 32 31 32 32
14 14 15 15 14 13 12 11 10 9 9 9 10 12 13 13 14 14 14 13 12 12 13 14 15 16 17 18 19 20 21 21 22 22 23 23 24 25 25 25 26 26 27 27 27 27 27 28 28 29 29 30 30 30 30 31 31 31 32 32 32 32 32 32 32 32 32 32 32
14 14 14 13 12 11 10 9 9 9 10 12 14 15 16 16 16 15 15 14 14 14 14 15 16 17 18 19 20 21 21 22 22 22 23 23 24 25 25 26 26 27 27 27 28 28 28 29 29 29 30 30 31 31 31 31 32 32 32 33 33 33 33 33 33 33 32 32 32
13 13 12 11 10 10 10 10 11 12 14 16 17 17 17 17 16 15 14 14 14 14 15 16 17 18 20 21 21 22 22 23 23 23 23 24 25 25 26 26 27 27 28 28 28 29 29 29 30 30 30 31 31 32 32 32 32 33 33 33 34 34 34 34 33 33 33 32 33
12 12 11 10 10 11 11 12 13 14 15 16 16 17 16 15 14 13 13 13 13 14 16 17 19 20 21 22 23 23 23 23 24 24 25 25 26 26 27 27 28 28 28 29 29 29 29 30 30 30 31 31 32 32 32 33 33 34 34 34 34 34 34 34 34 33 33 33 34
11 11 10 10 11 11 12 13 13 13 14 14 14 13 12 12 11 11 12 13 14 15 17 19 20 21 22 23 23 24 24 24 25 25 26 26 27 27 28 28 28 29 29 29 29 30 30 30 31 31 31 32 32 32 33 33 33 33 34 34 34 35 35 35 35 34 34 34 35
11 11 10 11 11 11 11 11 12 12 12 12 11 10 10 11 11 12 13 15 16 17 18 20 21 22 22 23 23 24 24 25 26 26 27 27 28 28 28 29 29 29 29 30 30 30 30 31 31 31 31 31 32 32 32 33 33 33 34 34 34 35 35 35 35 35 35 35 35
11 11 11 11 11 11 11 11 12 11 10 10 10 10 10 11 12 14 15 17 18 19 20 20 21 22 22 22 23 24 25 26 27 27 28 28 29 29 29 29 30 30 30 30 30 30 31 31 31 31 31 31 32 32 32 33 33 33 33 34 34 34 34 34 34 35 35 35 34
10 11 11 11 11 10 10 10 10 10 10 10 10 10 11 13 14 16 17 18 19 19 20 20 20 21 21 22 23 25 26 27 28 28 29 29 30 30 30 30 31 31 31 30 30 30 30 30 31 31 31 31 31 31 31 31 31 32 32 32 32 32 32 33 34 34 34 34 34
9 9 9 10 10 10 10 10 10 9 9 10 10 11 12 14 16 17 18 18 19 19 19 19 20 20 22 23 25 26 27 28 29 30 30 30 30 31 31 31 31 31 30 30 30 30 30 31 31 31 31 31 31 31 31 31 31 31 31 31 31 31 31 31 32 32 33 33 34
9 9 9 9 10 10 10 10 9 9 10 11 11 13 14 15 16 17 17 18 18 18 19 19 20 22 24 25 27 28 29 29 30 30 30 30 30 31 31 30 30 30 30 30 30 30 30 31 31 31 31 31 31 32 32 32 32 32 32 32 32 32 32 33 33 34 34 35 37
10 11 11 11 11 11 11 11 11 12 12 13 13 14 15 16 16 17 17 17 17 18 19 20 22 25 26 28 28 29 29 29 29 30 30 30 30 30 29 29 29 29 29 29 30 30 30 30 31 31 32 32 32 33 33 33 33 32 33 33 33 34 35 36 37 37 38 38 39
14 14 15 15 15 15 14 15 14 14 14 14 14 15 15 16 17 17 17 17 18 19 20 23 25 27 28 28 28 28 28 28 28 28 28 28 28 28 28 28 28 29 29 30 30 30 30 31 31 32 32 33 34 34 34 33 32 32 33 34 36 36 37 38 39 39 39 39 40
18 19 19 19 17 16 15 14 13 13 13 14 14 15 16 16 16 16 16 17 18 21 23 26 27 27 27 27 27 27 27 27 27 27 27 28 28 29 29 29 29 29 29 30 30 30 30 31 31 32 32 33 34 34 34 34 34 34 35 36 37 38 38 39 39 39 39 39 40
21 21 20 18 15 13 12 12 12 13 14 14 15 15 16 16 16 16 17 18 21 23 25 26 26 26 26 26 26 26 26 27 27 27 28 28 29 29 29 29 29 30 30 30 30 30 31 31 31 32 32 33 34 34 35 36 36 36 37 37 37 37 38 38 39 39 39 39 39
21 19 16 14 12 11 12 12 13 14 15 15 15 15 16 17 17 18 19 21 23 25 25 25 25 25 25 26 26 27 27 27 28 28 28 28 28 29 29 30 30 30 30 30 30 31 31 31 32 32 33 34 35 35 36 36 36 36 36 37 37 37 38 38 39 39 39 38 37
18 14 12 11 12 13 13 14 15 15 15 15 15 16 17 17 18 19 21 23 24 25 25 25 25 25 26 26 26 27 27 27 27 27 28 28 29 29 30 30 31 31 31 31 31 31 31 31 32 32 33 34 35 36 37 37 37 37 37 38 38 38 39 39 38 37 36 35 34
13 12 12 13 14 14 15 15 15 15 15 15 16 17 17 17 18 20 22 24 25 25 25 25 25 25 26 26 26 26 27 27 27 28 28 29 29 30 31 31 31 31 31 31 31 31 31 31 32 33 34 35 37 38 39 39 39 39 39 39 38 37 36 35 33 32 32 32 33
11 11 12 13 14 15 15 14 14 14 15 16 16 16 17 19 21 23 24 25 25 25 25 25 25 25 25 26 26 27 27 28 28 28 29 30 30 31 31 31 31 31 31 30 30 30 31 32 33 34 36 37 38 40 41 41 40 39 37 35 34 32 31 31 31 31 32 32 33
11 11 12 13 14 14 14 13 13 14 15 16 16 17 19 22 24 25 26 25 25 24 24 24 24 25 25 26 26 27 27 28 29 30 30 31 31 31 31 31 31 31 30 30 30 31 32 33 35 37 38 39 40 39 39 37 34 32 31 30 29 29 29 29 30 31 31 32 32
12 12 12 13 13 13 13 13 13 14 15 17 18 20 22 24 25 26 26 25 24 24 24 24 24 24 25 26 27 27 28 29 30 31 31 31 31 31 31 31 31 31 30 30 31 32 34 36 38 39 39 38 36 34 31 29 27 27 27 27 28 28 28 29 29 30 30 30 31
13 13 13 13 13 13 13 13 14 15 16 18 20 22 24 25 25 25 24 24 24 23 24 24 24 25 26 27 27 28 29 29 30 31 31 31 31 31 31 31 31 31 30 31 33 35 37 38 39 37 35 32 29 26 24 24 25 25 26 27 27 28 28 28 29 29 29 30 30
12 12 12 12 11 12 12 13 14 16 17 19 21 22 24 24 24 23 23 23 23 23 24 25 25 26 27 27 27 28 29 29 30 30 31 31 31 31 31 31 31 31 32 33 36 38 39 38 35 31 27 24 22 22 22 23 24 26 27 27 28 29 29 29 29 30 30 30 31
9 8 8 9 9 10 11 13 15 17 19 20 21 22 23 23 23 22 22 22 23 24 25 26 26 26 27 27 28 28 29 29 30 30 31 30 30 30 30 31 32 33 35 37 39 39 36 32 27 23 21 20 20 21 23 24 26 27 28 29 30 30 31 31 31 32 32 32 31
6 6 7 8 9 11 13 15 17 18 20 21 22 22 22 22 22 22 22 23 24 25 25 26 26 26 26 27 28 29 30 30 30 30 30 29 29 29 30 32 34 37 39 39 38 34 29 24 20 18 18 20 21 23 25 27 29 30 31 31 32 32 32 32 33 33 33 32 31
6 6 8 9 11 13 15 17 19 20 21 21 21 21 21 21 22 23 23 24 24 25 25 25 25 26 27 28 28 29 30 30 29 29 28 29 29 30 32 34 37 39 39 37 32 27 23 19 18 18 19 21 23 26 28 30 31 32 33 33 33 33 33 33 33 32 31 30 29
7 9 10 13 15 17 18 19 20 20 20 20 21 21 21 22 23 24 25 25 24 24 24 25 26 27 28 28 29 29 30 29 29 28 28 29 31 32 34 36 38 38 36 31 26 22 20 19 19 20 21 23 26 28 30 31 33 34 35 35 34 34 33 31 30 28 27 26 26
10 12 14 16 18 19 20 20 20 20 20 20 21 22 23 24 25 25 24 24 24 24 24 25 27 27 28 28 28 29 29 29 29 29 30 31 33 34 36 37 36 35 31 27 23 21 21 21 21 22 23 25 27 29 31 33 34 35 35 34 32 30 28 27 26 25 26 27 29
Wind_Direction
248 245 243 241 240 238 235 231 229 227 224 221 224 228 232 234 233 231 229 228 226 226 227 229 232 238 246 255 263 268 271 274 276 277 278 279 281 283 285 287 289 291 293 295 297 298 297 296 294 292 289 287 285 283 282 280 279 278 277 276 276 276 276 276 276 276 275 275 274
249 245 241 238 235 233 230 227 226 225 225 225 227 231 234 233 231 228 225 224 224 226 229 233 240 249 258 265 268 270 272 274 276 277 279 282 284 287 289 291 293 294 296 298 298 298 297 296 294 291 289 287 284 282 281 280 278 277 276 275 275 276 276 276 275 275 275 275 275
249 243 238 234 233 231 229 227 227 227 228 231 234 236 235 233 228 223 221 220 222 226 232 241 252 261 266 270 270 271 272 274 277 280 283 286 289 291 292 293 295 297 298 299 299 299 298 296 294 291 288 286 283 281 280 279 277 276 275 275 275 275 275 275 275 275 275 274 274
247 241 236 234 232 230 227 227 228 230 232 235 237 238 236 232 227 224 222 224 228 236 245 254 263 268 270 270 270 271 274 277 281 283 286 289 291 293 293 295 296 299 300 301 301 300 299 298 295 292 289 287 284 282 280 279 278 276 275 275 275 275 275 274 274 274 274 273 273
244 239 237 235 233 230 229 229 231 233 236 238 238 236 232 229 227 227 229 234 242 249 256 261 265 267 268 268 271 274 278 281 283 285 287 290 291 292 293 296 298 300 302 303 303 302 301 299 296 293 290 288 286 284 283 282 280 278 277 276 275 275 274 274 273 273 273 273 272
244 240 238 236 233 231 229 230 233 237 238 235 232 230 228 225 225 228 234 242 249 255 259 261 264 266 268 271 274 278 281 283 284 286 288 291 291 292 295 297 300 302 303 303 303 302 301 299 295 292 290 288 286 284 283 282 281 279 278 276 275 275 275 274 274 274 273 272 271
246 241 238 235 232 230 230 231 232 233 234 233 228 225 223 221 222 226 234 242 248 253 257 261 265 269 272 275 278 280 282 284 285 288 291 293 293 295 297 299 301 302 303 303 302 301 300 297 294 291 288 286 284 282 281 280 279 278 277 276 275 275 275 274 274 274 273 272 271
245 240 236 231 229 228 229 229 228 227 228 227 225 222 220 220 221 226 233 240 246 253 260 266 270 273 276 278 280 281 282 284 286 291 294 296 296 297 298 300 301 301 301 301 299 298 297 295 291 289 286 284 282 281 280 280 278 277 276 275 275 274 274 274 273 273 272 272 271
242 237 233 230 229 229 230 229 227 225 223 222 221 220 221 223 226 231 238 246 253 260 267 272 275 278 280 281 282 283 284 285 288 292 295 295 295 296 297 297 297 297 296 296 294 293 292 290 287 285 284 282 281 280 280 279 278 276 275 275 274 274 273 273 273 273 272 272 272
241 237 233 230 229 230 230 230 227 224 221 219 219 221 225 230 235 242 249 256 263 269 274 277 280 281 282 283 284 284 285 286 288 290 291 291 291 291 291 291 291 290 290 290 289 289 288 286 284 283 281 280 279 278 278 277 276 276 275 275 274 274 273 273 272 272 272 272 272
241 238 233 228 227 227 228 227 224 221 220 221 224 228 234 240 247 254 260 265 270 274 277 279 281 282 282 283 284 285 285 286 286 286 286 286 286 286 286 286 286 286 287 287 287 286 285 284 282 281 280 279 278 278 277 277 276 275 275 275 275 274 274 273 273 272 272 272 272
236 231 227 225 224 224 224 222 219 218 221 226 231 237 244 251 256 262 266 270 272 274 275 277 277 279 281 283 284 284 285 285 285 285 285 284 284 284 284 285 285 286 286 286 286 285 284 283 282 281 280 279 279 278 277 277 276 276 276 275 275 275 274 274 273 273 273 273 273
226 222 220 219 219 219 218 218 216 218 222 230 237 244 250 255 259 263 266 267 268 270 272 274 276 278 280 282 283 284 284 285 285 284 283 283 283 284 284 285 285 286 286 286 285 285 284 283 282 281 281 280 280 279 278 278 277 277 276 276 276 275 275 274 274 274 273 273 273
219 216 212 210 209 210 211 212 214 217 222 228 235 242 248 253 257 261 263 264 265 267 271 274 276 278 280 281 283 284 284 284 283 282 282 283 284 284 285 285 286 286 286 286 286 285 284 283 282 282 281 280 280 279 278 278 277 277 277 276 276 276 275 275 275 275 274 274 273
210 206 202 201 200 201 204 208 212 217 224 231 238 245 251 255 260 263 264 264 265 269 273 277 279 280 281 282 282 282 282 281 281 282 282 284 285 285 285 286 286 287 287 286 286 285 284 283 282 281 280 280 279 279 278 278 278 277 277 277 277 276 276 276 276 275 275 274 274
203 200 198 198 199 203 208 215 224 234 242 249 253 257 261 264 267 267 267 268 271 275 278 279 280 280 281 282 282 281 280 281 282 283 284 285 286 286 287 287 287 287 286 286 286 285 284 283 282 281 280 279 279 279 278 278 278 278 277 277 277 276 276 276 276 275 275 274 274
207 203 204 206 211 219 228 239 249 257 262 265 267 268 270 272 272 272 273 275 278 279 278 278 278 279 280 281 281 281 281 283 285 286 286 286 287 287 287 287 287 287 286 286 285 285 284 283 282 281 280 280 279 279 279 278 278 278 277 277 277 276 276 276 275 275 274 274 273
214 214 217 224 232 241 250 258 264 268 271 273 275 276 276 276 275 275 276 276 275 274 273 276 278 279 280 281 283 284 285 286 287 288 288 288 288 287 287 287 287 287 286 286 285 284 284 283 282 282 281 280 280 279 279 278 278 277 277 276 276 276 275 275 275 275 275 274 274
220 225 232 241 249 257 262 267 269 271 272 274 274 272 271 271 269 269 270 271 271 272 275 277 279 280 281 283 285 287 288 288 289 288 288 287 288 288 287 287 287 287 286 286 285 284 283 282 282 281 281 280 280 280 279 279 278 278 277 276 276 275 275 275 275 275 275 274 273
229 235 242 250 256 261 264 266 268 268 267 266 263 260 259 262 263 265 268 270 273 275 276 278 279 280 282 283 285 287 289 289 289 288 287 287 287 287 287 287 287 287 286 285 284 284 283 282 281 281 281 281 281 280 280 279 278 278 277 276 276 276 276 276 276 275 273 271 270
240 245 249 253 256 258 259 261 263 263 260 258 256 256 259 262 265 268 271 273 275 276 277 278 279 281 283 284 286 287 288 289 288 287 286 286 287 287 287 287 287 287 286 285 285 284 283 283 282 282 282 282 282 281 281 280 279 278 278 277 277 277 277 276 274 272 270 268 267
247 250 252 253 255 257 260 262 262 261 258 256 256 259 263 267 269 271 273 275 276 277 278 279 281 282 283 285 286 286 287 287 287 286 286 287 287 288 288 288 288 287 286 286 285 285 285 285 285 284 284 283 283 282 281 280 280 279 279 278 278 278 277 275 274 272 270 269 268
248 250 251 254 257 261 265 266 264 260 258 257 259 263 267 270 272 274 275 276 277 278 279 280 282 283 284 286 286 287 287 288 288 288 288 288 289 290 290 290 288 287 286 285 285 286 287 287 286 286 285 284 283 282 281 280 279 279 278 278 277 276 275 275 274 273 272 271 271
245 248 252 256 261 265 268 266 263 259 257 259 263 267 270 272 274 275 276 277 278 280 281 282 284 286 287 288 288 289 289 290 290 290 290 290 290 290 290 290 288 287 286 286 286 287 287 287 286 286 285 285 284 282 281 280 279 278 278 277 275 274 273 272 272 272 272 272 273
247 252 257 262 266 267 266 262 259 258 259 262 266 269 271 273 275 277 278 280 281 283 284 286 288 289 290 290 291 291 291 291 292 292 292 291 291 291 290 290 288 288 287 287 287 287 287 286 286 286 286 285 285 284 282 281 280 279 277 276 275 274 273 272 272 272 272 273 274
258 264 269 273 273 271 267 263 262 263 265 266 268 270 272 275 278 280 282 283 285 286 288 289 291 292 292 292 293 293 292 292 292 292 292 292 292 291 290 290 289 288 288 288 288 288 287 287 287 288 287 287 285 284 283 281 279 278 276 275 275 274 274 274 274 274 275 275 276
270 276 280 281 279 275 271 268 267 266 266 266 268 271 275 279 281 284 286 288 289 290 292 293 293 293 294 294 294 294 294 293 292 292 292 292 292 291 291 290 290 289 288 288 288 288 288 288 288 288 287 286 284 283 281 280 278 277 276 276 275 276 276 276 277 277 277 277 277
278 283 286 286 283 277 271 266 263 262 263 266 270 274 278 280 283 286 289 291 293 294 295 295 295 295 296 296 295 294 294 293 293 293 293 292 292 291 291 291 290 290 289 289 289 288 288 288 288 287 285 284 282 281 280 279 278 278 277 277 277 277 277 278 278 278 278 277 277
282 287 287 284 277 269 263 259 258 260 264 269 273 276 278 280 283 288 292 294 296 296 297 296 296 296 296 295 294 294 294 294 294 294 294 294 293 293 293 292 291 291 290 290 289 288 287 287 286 285 283 282 281 280 280 280 280 280 280 280 279 279 278 278 277 277 277 277 277
287 287 281 272 264 260 258 258 260 263 267 271 274 276 279 283 288 293 295 296 296 296 296 296 296 296 295 294 294 295 295 296 296 296 296 295 294 293 293 292 292 291 290 290 289 288 287 286 285 283 282 280 279 279 279 279 280 281 281 280 280 279 278 278 278 278 278 278 277
286 278 268 263 260 260 260 261 264 266 269 272 275 279 285 290 294 296 297 297 297 296 296 296 296 295 295 295 296 297 297 297 297 297 296 295 294 293 293 292 292 292 291 291 290 289 287 285 284 282 281 280 279 279 280 281 281 281 281 280 280 279 279 279 280 280 279 278 278
279 271 266 264 264 264 264 265 267 269 272 275 281 286 291 294 297 298 299 298 298 297 297 297 297 296 297 297 298 298 298 298 297 296 296 295 295 294 294 294 293 293 293 292 291 289 287 285 283 282 282 282 282 282 282 283 283 283 282 282 281 282 282 282 282 281 280 280 279
275 270 267 267 267 267 268 269 271 274 278 283 287 291 294 297 299 300 299 299 298 298 298 297 297 297 298 298 298 298 298 298 297 297 297 296 296 296 295 295 294 294 293 292 291 288 286 285 284 284 285 286 286 286 286 286 286 285 285 284 284 284 284 284 283 282 282 281 281
275 270 266 265 267 269 271 274 277 281 285 289 292 294 297 298 299 299 299 298 298 298 298 297 297 297 297 298 298 298 298 298 298 298 298 298 297 297 296 295 295 294 293 292 290 288 287 287 288 289 290 290 290 290 290 290 289 289 288 287 287 287 287 286 285 284 284 284 283
271 268 266 266 268 270 274 278 282 286 290 293 295 297 298 298 298 297 297 298 298 298 298 297 297 298 298 298 299 299 299 299 299 299 299 298 298 297 296 295 295 294 293 291 290 290 291 292 293 294 294 294 294 295 295 295 294 292 291 291 291 290 290 290 289 288 287 286 285
270 270 270 271 272 275 279 284 288 291 294 296 297 298 298 298 297 297 298 299 299 298 298 298 299 299 300 300 300 300 300 300 300 300 299 299 298 298 297 296 295 294 293 292 293 294 296 297 297 298 298 299 301 301 301 300 298 297 296 295 294 294 293 293 292 291 290 289 288
274 274 273 276 279 283 288 291 294 296 298 298 299 299 299 298 298 298 299 299 299 299 299 300 301 301 302 302 302 301 301 301 301 300 300 300 299 298 297 296 295 294 294 295 297 299 300 300 301 302 304 307 307 307 305 303 301 300 298 297 296 295 295 294 293 292 292 291 290
278 276 278 282 287 292 296 298 300 301 301 300 300 300 299 299 299 300 300 300 300 300 301 302 302 303 303 303 303 302 302 302 301 301 301 300 299 297 296 295 295 295 297 299 301 302 303 304 305 308 312 313 312 310 307 305 302 300 299 297 296 295 295 295 294 293 292 291 290
271 274 282 291 297 300 303 304 304 303 302 301 301 300 300 300 300 300 300 301 302 302 303 303 303 303 303 303 303 303 303 303 302 301 300 299 297 295 295 295 296 299 301 304 305 306 307 309 312 315 317 316 314 310 307 304 301 299 297 296 296 295 295 295 294 292 290 289 287
274 284 293 299 303 306 306 306 304 303 302 301 300 300 300 300 301 302 303 304 304 304 304 304 303 304 304 305 304 304 303 303 302 301 299 297 296 295 296 297 299 302 305 308 310 311 313 315 317 318 318 316 313 309 305 301 298 296 296 296 295 295 294 294 292 290 288 287 286
289 298 303 305 306 306 306 304 303 301 300 300 300 300 301 303 304 305 306 307 306 305 305 304 305 305 306 306 305 304 303 303 301 300 298 297 296 297 298 300 303 306 309 313 314 316 316 317 317 317 316 314 310 306 302 298 295 294 295 295 296 295 294 293 293 292 291 290 290
Height
1473 1472 1472 1472 1472 1472 1473 1473 1473 1473 1474 1474 1475 1475 1476 1476 1477 1477 1477 1477 1477 1477 1477 1477 1478 1478 1478 1478 1478 1478 1478 1478 1478 1479 1479 1479 1479 1479 1478 1477 1476 1476 1475 1474 1474 1473 1473 1472 1471 1471 1470 1469 1469 1468 1468 1467 1467 1467 1466 1466 1465 1465 1465 1464 1464 1463 1463 1463 1463
1470 1470 1470 1469 1469 1470 1470 1470 1471 1471 1472 1473 1473 1474 1475 1475 1475 1475 1475 1475 1475 1475 1476 1476 1476 1476 1476 1476 1476 1476 1476 1476 1477 1477 1477 1477 1477 1476 1476 1475 1474 1474 1473 1472 1472 1471 1471 1470 1470 1469 1468 1467 1467 1466 1466 1465 1465 1465 1464 1464 1463 1463 1463 1462 1462 1461 1461 1461 1460
1468 1467 1466 1465 1466 1467 1468 1469 1469 1470 1471 1472 1472 1473 1473 1473 1473 1473 1473 1473 1474 1474 1474 1475 1475 1475 1475 1475 1475 1475 1475 1475 1475 1475 1475 1475 1475 1474 1474 1473 1472 1472 1471 1470 1470 1470 1469 1468 1467 1467 1466 1465 1465 1464 1464 1463 1463 1463 1462 1461 1461 1461 1460 1460 1460 1459 1459 1459 1458
1466 1465 1463 1464 1465 1465 1466 1467 1468 1469 1470 1470 1470 1470 1471 1470 1470 1471 1471 1472 1472 1473 1473 1474 1474 1474 1474 1474 1473 1473 1473 1473 1474 1473 1473 1473 1472 1472 1471 1471 1470 1470 1469 1469 1468 1467 1467 1466 1465 1464 1464 1463 1462 1462 1461 1461 1461 1460 1460 1460 1459 1459 1458 1458 1458 1457 1457 1457 1456
1463 1462 1461 1462 1463 1464 1465 1465 1466 1467 1468 1468 1468 1468 1468 1469 1469 1470 1470 1471 1471 1472 1473 1473 1473 1473 1472 1472 1472 1472 1472 1472 1472 1472 1471 1471 1470 1470 1469 1469 1468 1467 1467 1466 1466 1465 1465 1464 1463 1462 1461 1460 1460 1460 1459 1459 1459 1458 1457 1457 1457 1457 1456 1456 1455 1455 1455 1455 1454
1460 1460 1460 1460 1462 1463 1463 1464 1465 1465 1465 1466 1466 1466 1466 1467 1468 1469 1470 1470 1470 1471 1471 1471 1471 1471 1471 1471 1471 1470 1470 1470 1470 1470 1470 1469 1469 1468 1467 1467 1466 1465 1465 1464 1464 1463 1462 1461 1461 1460 1459 1459 1458 1457 1457 1457 1456 1456 1455 1455 1455 1454 1454 1454 1453 1453 1453 1452 1452
1458 1458 1459 1460 1460 1461 1462 1462 1463 1463 1463 1464 1464 1464 1465 1466 1467 1467 1468 1469 1469 1470 1470 1470 1470 1470 1470 1470 1469 1469 1469 1469 1469 1468 1468 1467 1466 1466 1465 1465 1464 1463 1462 1462 1461 1460 1460 1459 1459 1458 1457 1456 1456 1455 1455 1455 1454 1454 1453 1453 1452 1452 1452 1451 1451 1451 1450 1450 1450
1456 1457 1458 1459 1459 1459 1460 1460 1461 1461 1461 1462 1462 1463 1464 1465 1465 1466 1466 1467 1467 1468 1468 1468 1468 1468 1468 1468 1468 1467 1467 1467 1466 1466 1465 1465 1464 1464 1463 1462 1461 1461 1460 1460 1459 1458 1457 1457 1456 1455 1455 1454 1454 1453 1453 1453 1452 1452 1451 1451 1450 1450 1450 1450 1449 1449 1448 1448 1448
1455 1455 1456 1457 1457 1458 1458 1459 1459 1459 1460 1460 1461 1462 1463 1463 1464 1464 1465 1465 1465 1466 1466 1466 1467 1467 1466 1466 1466 1465 1465 1465 1464 1464 1463 1463 1462 1461 1460 1460 1459 1458 1458 1457 1457 1456 1455 1455 1454 1454 1453 1452 1452 1451 1451 1451 1450 1450 1449 1449 1448 1448 1448 1447 1447 1447 1446 1446 1445
1454 1455 1455 1456 1456 1456 1456 1457 1458 1458 1459 1459 1460 1460 1461 1461 1462 1462 1463 1463 1464 1464 1465 1465 1465 1465 1465 1465 1464 1464 1464 1463 1462 1462 1461 1460 1460 1459 1459 1458 1457 1457 1456 1456 1455 1455 1454 1454 1453 1452 1451 1451 1450 1450 1449 1449 1449 1448 1447 1447 1446 1446 1445 1445 1445 1445 1444 1444 1443
1453 1454 1454 1455 1455 1455 1455 1456 1456 1457 1458 1458 1459 1459 1460 1460 1461 1462 1462 1463 1463 1463 1464 1464 1464 1464 1464 1463 1463 1463 1462 1462 1461 1461 1460 1459 1459 1458 1458 1457 1456 1456 1455 1455 1454 1453 1453 1452 1451 1450 1449 1449 1448 1448 1447 1447 1446 1445 1445 1444 1444 1443 1443 1442 1442 1442 1442 1441 1440
1452 1453 1453 1453 1453 1453 1454 1455 1455 1456 1456 1457 1457 1458 1459 1460 1460 1461 1462 1462 1462 1462 1462 1463 1463 1463 1462 1462 1462 1462 1461 1461 1460 1460 1459 1458 1457 1457 1456 1455 1455 1454 1453 1453 1452 1451 1450 1450 1449 1448 1447 1446 1446 1445 1445 1444 1444 1443 1442 1442 1441 1441 1440 1440 1440 1440 1439 1439 1438
1451 1451 1451 1451 1452 1452 1453 1453 1454 1455 1455 1456 1457 1458 1459 1459 1460 1460 1461 1461 1461 1461 1461 1461 1461 1461 1461 1461 1460 1460 1460 1459 1459 1458 1457 1456 1456 1455 1454 1453 1453 1452 1451 1450 1450 1449 1448 1447 1446 1446 1445 1444 1443 1443 1442 1442 1441 1440 1440 1439 1439 1438 1438 1437 1437 1437 1437 1436 1436
1451 1451 1450 1451 1451 1451 1452 1453 1453 1454 1455 1455 1456 1457 1458 1458 1459 1459 1460 1460 1460 1460 1460 1460 1460 1460 1459 1459 1459 1458 1458 1457 1457 1456 1455 1454 1454 1453 1452 1451 1450 1450 1449 1448 1447 1447 1446 1445 1444 1443 1443 1442 1441 1440 1440 1439 1439 1438 1438 1437 1436 1436 1435 1435 1435 1434 1434 1434 1433
1450 1450 1450 1450 1451 1451 1452 1452 1453 1454 1454 1455 1455 1456 1457 1457 1458 1458 1458 1458 1458 1458 1458 1458 1458 1458 1458 1457 1457 1456 1456 1455 1455 1454 1453 1452 1451 1450 1450 1449 1448 1447 1446 1446 1445 1445 1444 1443 1442 1441 1440 1440 1439 1438 1437 1437 1436 1436 1435 1435 1434 1433 1433 1432 1432 1432 1431 1431 1430
1450 1450 1450 1450 1450 1451 1452 1452 1453 1453 1454 1454 1455 1455 1455 1456 1456 1456 1456 1456 1456 1456 1456 1456 1456 1456 1456 1455 1455 1455 1454 1453 1452 1452 1451 1450 1449 1448 1448 1447 1446 1445 1444 1444 1443 1442 1441 1440 1440 1439 1438 1437 1436 1435 1435 1434 1434 1433 1432 1432 1431 1431 1430 1430 1430 1429 1429 1428 1428
1450 1450 1450 1450 1450 1451 1452 1452 1452 1453 1453 1453 1454 1454 1454 1454 1454 1454 1454 1454 1454 1454 1454 1455 1454 1454 1454 1453 1453 1452 1452 1451 1450 1450 1449 1448 1447 1446 1445 1445 1444 1443 1442 1441 1440 1440 1439 1438 1437 1436 1436 1435 1434 1433 1432 1432 1431 1430 1430 1429 1429 1428 1428 1427 1427 1426 1426 1425 1425
1449 1450 1450 1450 1451 1451 1452 1452 1452 1452 1452 1452 1452 1452 1452 1452 1452 1452 1452 1453 1453 1453 1453 1453 1453 1452 1452 1451 1451 1450 1450 1449 1448 1447 1447 1446 1445 1444 1443 1442 1442 1441 1440 1439 1438 1437 1436 1435 1435 1434 1433 1432 1431 1430 1430 1429 1428 1428 1427 1426 1426 1425 1425 1424 1424 1424 1423 1423 1422
1449 1450 1450 1450 1450 1451 1451 1451 1451 1451 1451 1451 1451 1451 1451 1451 1451 1451 1452 1452 1452 1452 1452 1451 1451 1450 1450 1450 1449 1448 1448 1447 1446 1445 1445 1444 1443 1442 1441 1440 1440 1439 1438 1437 1436 1435 1434 1433 1432 1431 1430 1430 1429 1428 1427 1426 1426 1425 1424 1424 1423 1423 1422 1422 1421 1421 1421 1420 1420
1449 1449 1450 1450 1450 1450 1450 1451 1451 1451 1451 1451 1450 1450 1450 1450 1451 1451 1451 1451 1451 1451 1450 1450 1449 1449 1448 1447 1447 1446 1446 1445 1444 1443 1442 1442 1441 1440 1439 1438 1437 1436 1435 1434 1433 1432 1431 1430 1429 1429 1428 1427 1426 1425 1424 1424 1423 1422 1421 1421 1420 1420 1419 1419 1419 1418 1418 1417 1416
1449 1449 1449 1450 1450 1450 1450 1450 1450 1450 1450 1450 1450 1450 1450 1450 1450 1450 1450 1450 1449 1449 1448 1448 1447 1447 1446 1445 1445 1444 1444 1443 1442 1441 1440 1440 1439 1438 1436 1435 1435 1433 1432 1431 1430 1429 1428 1427 1427 1426 1425 1424 1423 1422 1422 1421 1420 1419 1419 1418 1418 1417 1417 1416 1416 1415 1414 1413 1413
1448 1448 1449 1449 1449 1449 1449 1449 1449 1448 1448 1448 1448 1448 1448 1448 1448 1448 1448 1448 1447 1447 1446 1446 1445 1445 1444 1444 1443 1442 1441 1441 1440 1439 1438 1437 1436 1435 1434 1433 1432 1431 1430 1429 1428 1427 1426 1425 1424 1423 1423 1422 1421 1420 1419 1418 1418 1417 1416 1415 1415 1415 1414 1413 1412 1411 1411 1410 1410
1448 1448 1448 1447 1447 1447 1447 1447 1447 1447 1447 1447 1447 1447 1447 1447 1447 1446 1446 1446 1445 1445 1445 1444 1444 1443 1443 1442 1441 1440 1439 1438 1437 1436 1435 1435 1434 1432 1431 1431 1430 1428 1427 1426 1425 1424 1423 1422 1421 1421 1420 1419 1418 1417 1417 1416 1415 1415 1414 1413 1413 1412 1411 1410 1410 1409 1408 1407 1407
1446 1446 1446 1446 1446 1446 1446 1446 1446 1446 1445 1445 1445 1445 1445 1445 1445 1445 1445 1444 1444 1443 1443 1443 1442 1441 1441 1440 1439 1438 1437 1436 1435 1434 1433 1432 1431 1430 1429 1428 1427 1425 1425 1423 1422 1422 1421 1420 1419 1418 1417 1417 1416 1415 1414 1413 1413 1412 1411 1410 1410 1409 1408 1407 1407 1406 1405 1405 1404
1445 1445 1445 1445 1445 1445 1445 1445 1444 1444 1444 1444 1444 1444 1444 1444 1444 1443 1443 1443 1442 1442 1441 1441 1440 1440 1439 1438 1437 1436 1435 1434 1432 1431 1430 1429 1428 1427 1426 1425 1424 1423 1422 1421 1420 1419 1419 1418 1417 1416 1415 1414 1413 1412 1411 1410 1410 1409 1408 1407 1406 1405 1405 1404 1403 1403 1402 1401 1400
1443 1443 1443 1443 1443 1443 1443 1443 1442 1442 1443 1443 1443 1443 1443 1442 1442 1442 1442 1441 1441 1440 1440 1439 1439 1438 1436 1435 1434 1433 1432 1431 1430 1429 1428 1427 1426 1425 1424 1423 1422 1421 1420 1419 1418 1417 1417 1416 1415 1414 1413 1412 1410 1410 1408 1407 1407 1406 1405 1404 1403 1402 1401 1400 1399 1399 1398 1398 1397
1442 1441 1441 1441 1441 1441 1441 1441 1441 1441 1441 1441 1442 1441 1441 1441 1441 1441 1440 1440 1439 1439 1438 1437 1436 1435 1434 1433 1432 1431 1430 1429 1428 1427 1426 1425 1424 1423 1422 1421 1420 1419 1418 1417 1416 1415 1415 1414 1413 1412 1411 1410 1408 1407 1405 1404 1403 1402 1402 1400 1400 1399 1398 1397 1396 1395 1395 1394 1393
1440 1440 1440 1440 1440 1440 1440 1440 1440 1440 1440 1440 1440 1440 1440 1440 1440 1439 1439 1438 1438 1437 1436 1435 1434 1433 1432 1431 1430 1429 1428 1427 1426 1425 1424 1423 1422 1421 1420 1419 1418 1417 1416 1415 1414 1414 1413 1412 1411 1410 1409 1407 1405 1404 1402 1401 1400 1399 1398 1397 1396 1395 1394 1393 1393 1392 1391 1390 1389
1439 1439 1439 1439 1439 1439 1439 1439 1440 1440 1440 1440 1440 1439 1439 1438 1438 1437 1437 1436 1436 1435 1434 1433 1432 1431 1430 1429 1428 1427 1426 1425 1424 1423 1422 1421 1420 1419 1418 1417 1415 1415 1414 1413 1412 1411 1410 1409 1408 1407 1405 1404 1402 1401 1400 1399 1397 1396 1395 1394 1393 1392 1391 1390 1389 1388 1387 1386 1386
1438 1438 1438 1438 1438 1438 1438 1439 1439 1439 1439 1439 1438 1438 1437 1436 1436 1436 1435 1435 1434 1433 1432 1431 1430 1429 1428 1427 1426 1425 1424 1423 1422 1421 1420 1419 1418 1416 1415 1414 1413 1412 1411 1410 1409 1408 1407 1406 1405 1404 1402 1401 1400 1398 1397 1396 1395 1393 1392 1391 1390 1389 1388 1386 1385 1385 1384 1384 1383
1437 1437 1437 1437 1437 1437 1437 1438 1438 1438 1438 1437 1437 1436 1435 1435 1435 1435 1434 1433 1432 1431 1430 1429 1428 1427 1426 1425 1424 1423 1422 1421 1420 1419 1418 1417 1415 1414 1413 1412 1410 1409 1408 1407 1406 1405 1405 1403 1402 1400 1399 1398 1397 1395 1394 1393 1391 1390 1389 1387 1386 1385 1384 1383 1383 1382 1382 1381 1380
1436 1436 1436 1436 1436 1436 1437 1437 1437 1437 1436 1435 1435 1435 1434 1434 1434 1433 1432 1431 1430 1429 1428 1427 1426 1425 1424 1423 1422 1421 1420 1419 1418 1416 1415 1414 1413 1411 1410 1409 1408 1406 1405 1405 1404 1403 1401 1400 1399 1397 1396 1395 1394 1392 1390 1389 1388 1386 1385 1384 1383 1382 1381 1381 1380 1380 1379 1379 1378
1435 1435 1435 1435 1435 1436 1436 1436 1436 1435 1435 1434 1434 1434 1433 1432 1432 1431 1430 1429 1428 1427 1426 1425 1424 1423 1422 1421 1420 1419 1418 1416 1415 1414 1413 1412 1410 1409 1407 1406 1405 1404 1403 1402 1401 1400 1398 1397 1395 1394 1393 1392 1390 1389 1387 1385 1384 1383 1381 1380 1380 1379 1379 1378 1378 1377 1376 1376 1375
1434 1434 1435 1435 1435 1435 1435 1435 1435 1434 1434 1433 1433 1432 1431 1431 1430 1429 1428 1427 1426 1425 1425 1424 1423 1421 1420 1419 1418 1417 1415 1414 1413 1412 1410 1409 1408 1406 1405 1404 1402 1401 1400 1400 1398 1397 1395 1394 1392 1391 1390 1388 1387 1385 1383 1382 1381 1380 1379 1378 1377 1377 1376 1376 1375 1375 1374 1373 1373
1433 1433 1434 1434 1434 1434 1434 1433 1433 1433 1432 1432 1431 1430 1430 1429 1428 1427 1426 1425 1425 1424 1423 1421 1420 1420 1418 1417 1416 1415 1413 1412 1410 1409 1408 1407 1405 1404 1403 1401 1400 1399 1398 1397 1395 1394 1392 1391 1389 1388 1386 1385 1383 1382 1381 1380 1379 1378 1377 1376 1375 1375 1374 1374 1373 1372 1371 1371 1370
1433 1433 1433 1433 1433 1432 1432 1432 1432 1431 1431 1430 1430 1429 1428 1427 1427 1426 1425 1424 1423 1422 1420 1420 1418 1417 1416 1415 1414 1412 1411 1410 1408 1407 1406 1405 1403 1402 1400 1399 1397 1396 1395 1394 1392 1391 1389 1388 1386 1385 1384 1382 1381 1380 1379 1378 1377 1376 1375 1374 1373 1372 1371 1371 1370 1369 1369 1368 1367
1433 1433 1432 1432 1432 1431 1431 1431 1430 1430 1430 1429 1428 1428 1427 1426 1425 1424 1423 1422 1421 1420 1418 1417 1416 1415 1414 1413 1411 1410 1409 1408 1406 1405 1403 1402 1401 1400 1398 1396 1395 1394 1392 1391 1390 1388 1386 1385 1384 1382 1381 1380 1379 1378 1377 1376 1375 1374 1373 1372 1371 1370 1369 1368 1367 1367 1366 1365 1364
1432 1432 1431 1431 1431 1430 1430 1430 1429 1429 1428 1427 1427 1426 1425 1424 1423 1422 1421 1420 1419 1418 1416 1415 1414 1413 1412 1410 1409 1408 1407 1405 1404 1403 1401 1400 1399 1397 1396 1394 1392 1391 1390 1388 1387 1385 1384 1382 1381 1380 1379 1378 1377 1376 1375 1374 1373 1371 1370 1370 1368 1367 1367 1366 1365 1364 1363 1362 1361
1431 1430 1430 1430 1430 1429 1429 1428 1428 1427 1427 1426 1425 1424 1423 1423 1421 1420 1419 1418 1417 1416 1414 1413 1412 1411 1410 1409 1407 1406 1404 1403 1402 1401 1400 1398 1397 1395 1394 1392 1390 1388 1387 1385 1384 1382 1381 1380 1379 1378 1378 1377 1376 1375 1373 1372 1370 1369 1368 1367 1366 1365 1364 1363 1362 1361 1360 1359 1359
1430 1429 1429 1429 1429 1428 1428 1427 1427 1426 1425 1424 1424 1423 1422 1421 1420 1418 1417 1416 1415 1414 1413 1411 1410 1409 1408 1406 1405 1404 1402 1401 1400 1399 1398 1396 1395 1393 1391 1390 1388 1386 1384 1383 1381 1380 1379 1378 1377 1376 1376 1375 1374 1373 1371 1370 1369 1367 1366 1365 1364 1363 1361 1360 1360 1359 1358 1358 1357
1429 1429 1428 1428 1428 1427 1426 1426 1425 1425 1424 1423 1422 1421 1420 1419 1417 1416 1415 1414 1413 1412 1411 1410 1408 1407 1406 1405 1403 1402 1400 1399 1398 1397 1395 1394 1392 1391 1389 1387 1385 1383 1382 1380 1379 1378 1377 1376 1376 1375 1374 1374 1372 1371 1370 1369 1367 1365 1364 1363 1362 1361 1360 1359 1358 1357 1357 1355 1355